Regional Weather Roundup
Issued by NWS Sterling, VA

Home | Current Version | Previous Version | Graphics & Text | Print | Product List | Glossary On
Versions: 1 2 3 4 5 6 7 8 9 10 11 12 13 14 15 16 17 18 19 20 21 22 23 24 25 26 27 28 29 30 31 32 33 34 35 36 37 38 39 40 41 42 43 44 45 46 47 48 49 50
740
ASUS41 KLWX 220311
RWRLWX

REGIONAL WEATHER ROUNDUP
NATIONAL WEATHER SERVICE BALTIMORE MD/WASHINGTON DC
1000 PM EST WED FEB 21 2018

Note: "FAIR" indicates few or no clouds below 12,000 feet
with no significant weather and/or obstructions to visibility.
 TC=TEMPERATURE CELSIUS

 * =Non NWS site. Station does not report precipitation (e.g. rain,
    snow, etc.), thunder, or fog.

DCZ001-MDZ009-015-VAZ040>042-051-053>054-220400-
WASHINGTON METRO

CITY           SKY/WX    TMP DP  RH WIND       PRES   REMARKS
WASHINGTON NAT CLOUDY    70  60  70 VRB3      30.35R
DULLES         CLOUDY    67  62  84 NW6       30.36R
ANDREWS AFB    FAIR      70  59  67 W7        30.34R
FT BELVOIR     FAIR      71  60  67 CALM      30.35R
QUANTICO       FAIR      62  58  86 SW10      30.35S
COLLEGE PARK*  MOCLDY    72  59  62 W3        30.35R
LEESBURG*      CLOUDY    68  61  77 N8        30.37F
MANASSAS*      CLOUDY    65  62  90 N6        30.36R
GAITHERSBURG*  CLOUDY    66  62  87 NW5       30.38R

$$

MDZ006>007-011-014-220400-
BALTIMORE METRO

CITY           SKY/WX    TMP DP  RH WIND       PRES   REMARKS
BWI AIRPORT    MOCLDY    66  63  90 W5        30.34R
MD SCIENCE CTR   N/A     71  64  78 MISG      30.33R
MARTIN STATE   CLOUDY    61  59  94 CALM      30.35S
ANNAPOLIS      FAIR      57  55  93 E3        30.34R
FORT MEADE*    FAIR      68  59  73 CALM      30.37R

$$

MDZ012-015-019>023-220400-
MARYLAND EASTERN SHORE

CITY           SKY/WX    TMP DP  RH WIND       PRES   REMARKS
OCEAN CITY     FAIR      61  59  93 SW7       30.37S
SALISBURY      FAIR      65  61  87 SW7       30.37R
CAMBRIDGE*     CLEAR     68  61  77 S7G14     30.36R
EASTON*        CLEAR     68  61  77 SW8       30.39R

$$

MDZ017>025-220400-
SOUTHERN MARYLAND

CITY           SKY/WX    TMP DP  RH WIND       PRES   REMARKS
PATUXENT RIVER FAIR      69  63  81 SW10      30.35R
ST INIGOES     FAIR      67  60  78 SW9       30.36R
LEONARDTOWN*   FAIR      68  61  77 SW7       30.38R

$$

MDZ003>005-220400-
NORTH CENTRAL MARYLAND

CITY           SKY/WX    TMP DP  RH WIND       PRES   REMARKS
FREDERICK*     CLOUDY    66  64  94 N3        30.39R
HAGERSTOWN APT CLOUDY    63  56  78 NW3       30.38R
WESTMINSTER*   MOCLDY    64  59  82 N5        30.38R

$$

MDZ501>502-220400-
WESTERN MARYLAND

CITY           SKY/WX    TMP DP  RH WIND       PRES   REMARKS
OAKLAND*       CLOUDY    46  46 100 NW6       30.45R VSB<1/4
CUMBERLAND*    FAIR      61  52  72 N8        30.44S

$$

VAZ025>031-220400-
SHENANDOAH VALLEY

CITY           SKY/WX    TMP DP  RH WIND       PRES   REMARKS
WINCHESTER*    CLOUDY    63  54  72 CALM      30.40S
FRONT ROYAL*   MOCLDY    64  59  82 N5        30.37R
LURAY*         MOCLDY    59  59 100 E5        30.37R FOG
NEW MARKET*    CLOUDY    59  58  96 CALM      30.36S
STAUNTON*      CLOUDY    58  57  99 CALM      30.40S FOG
WAYNESBORO*    FAIR      61  60  96 CALM      30.38S

$$

WVZ021-048>050-054>055-220400-
EASTERN WEST VIRGINIA PANHANDLE

CITY           SKY/WX    TMP DP  RH WIND       PRES   REMARKS
MARTINSBURG    CLOUDY    63  55  75 NW3       30.37S
PETERSBURG*    CLOUDY    61  55  82 CALM      30.39S

$$

VAZ036>039-050-220400-
CENTRAL FOOTHILLS

CITY           SKY/WX    TMP DP  RH WIND       PRES   REMARKS
CHARLOTTESVILL MOCLDY    69  61  75 S6        30.36R
CULPEPER*      CLOUDY    67  61  80 N8        30.37R
ORANGE*        FAIR      63  59  88 CALM      30.36R
GORDONSVILLE*  FAIR      62  61  97 CALM      30.36R
WARRENTON*     CLOUDY    67  61  79 N3        30.35R

$$

VAZ055>057-220400-
NORTH AND CENTRAL PIEDMONT

CITY           SKY/WX    TMP DP  RH WIND       PRES   REMARKS
FREDERICKSBRG* FAIR      69  62  78 S6        30.35S
STAFFORD*      FAIR      70  63  77 S3        30.40R

$$

NCZ024-NYZ072-PAZ021-071-VAZ022-071-220400-
OTHER REGIONAL OBSERVATIONS

CITY           SKY/WX    TMP DP  RH WIND       PRES   REMARKS
NEW YORK CITY  CLOUDY    60  52  74 N7        30.39R
PHILADELPHIA   CLOUDY    67  61  81 N16       30.36R
PITTSBURGH     CLOUDY    45  37  73 N10       30.52R
ROANOKE        FAIR      64  59  83 S3        30.40S
RICHMOND       FAIR      65  62  90 S10       30.37F
RALEIGH        MOCLDY    70  62  76 S10       30.43R

$$

ANZ530>537-220400-
MARINE OBSERVATIONS

STATION/POSITION TIME  TEMP    WIND        PRES
                       AIR SEA DIR/SP/G
                 (UTC) (F)     (DEG/KT/KT) (MB)
THOMAS PT LIGHT  NOT AVBL
BALT KEY BRIDGE  0248   69     270/  4/  4 1027.5R
COVE POINT       0248   70     240/ 16/ 21 1028.3R
LEWISETTA        0248   68 51  220/ 11/ 13 1028.1F
SOLOMONS ISLAND  0248   65 43  220/ 12/ 15 1027.7R
PINEY POINT      0248          240/ 10/ 11   N/A

$$





USA.gov is the U.S. government's official web portal to all federal, state and local government web resources and services.